Temperature
12 12 11 11 11 10 10 10 10 10 10 10 10 11 11 11 11 12 12 12 12 13 13 13 13 13 14 14 14 14 15 15 15 15 15 15 16 16 16 16 16 16 16
12 12 11 11 11 11 11 10 10 10 10 10 10 10 10 11 11 11 11 12 12 12 12 13 13 13 13 14 14 14 14 14 14 14 15 15 15 15 15 15 16 16 16
13 12 12 11 11 11 10 10 10 10 10 10 10 10 10 10 10 10 11 11 11 12 12 12 12 13 13 13 13 14 14 14 14 14 14 14 14 15 15 15 15 15 15
13 12 12 11 11 11 10 10 10 10 10 10 10 10 10 10 10 10 10 11 11 11 12 12 12 12 12 13 13 13 13 13 14 14 14 14 14 14 14 14 14 15 15
13 12 12 11 11 10 10 10 10 10 10 9 9 10 10 10 10 10 10 10 11 11 11 12 12 12 12 12 12 13 13 13 13 13 13 14 14 14 14 14 14 14 14
13 12 12 11 11 10 10 10 10 9 9 9 9 9 9 9 10 10 10 10 10 11 11 11 11 11 12 12 12 12 12 13 13 13 13 13 13 13 13 13 14 14 14
13 13 12 11 11 11 10 10 10 9 9 9 9 9 9 9 10 10 10 10 10 10 11 11 11 11 11 12 12 12 12 12 13 13 13 13 13 13 13 13 13 14 14
14 13 12 12 11 11 10 10 10 10 9 9 9 9 9 9 9 10 10 10 10 10 11 11 11 11 11 11 11 12 12 12 12 13 13 13 13 13 13 13 13 13 13
14 13 13 12 12 11 11 10 10 10 10 10 9 9 9 9 9 10 10 10 10 10 10 11 11 11 11 11 11 11 12 12 12 12 13 13 13 13 13 13 13 13 12
14 14 13 13 12 12 11 11 10 10 10 10 10 9 9 9 9 10 10 10 10 10 10 11 11 11 11 11 11 11 11 12 12 12 12 12 13 13 13 13 13 13 12
15 14 14 13 13 12 12 11 11 10 10 10 10 10 9 10 10 10 10 10 10 10 10 10 11 11 11 11 11 11 12 12 12 12 12 12 12 12 12 12 12 12 12
15 15 14 14 13 13 12 12 11 11 11 10 10 10 10 9 10 10 10 10 10 10 10 10 11 11 11 11 11 11 12 12 12 12 12 12 12 12 12 12 12 12 12
15 15 15 14 14 14 13 12 12 11 11 11 10 10 10 10 10 10 10 10 10 10 10 10 11 11 11 11 11 11 11 11 12 12 12 12 12 12 12 12 12 12 12
16 15 15 15 14 14 14 13 12 12 12 11 11 11 10 10 10 9 9 9 10 10 10 10 11 11 11 11 11 11 11 11 11 11 11 11 11 11 11 11 11 11 11
16 15 15 15 15 15 14 14 13 13 12 12 11 11 11 10 10 10 10 10 10 10 10 10 10 10 11 11 11 11 11 11 11 11 11 11 11 11 11 11 11 11 11
15 15 15 15 15 15 15 14 14 14 13 13 12 12 11 11 11 11 10 10 10 10 10 10 10 11 11 11 11 11 11 11 11 11 11 11 11 11 11 11 11 11 11
15 15 15 15 15 15 14 14 14 14 14 14 13 13 12 12 11 11 11 10 10 10 10 10 10 11 11 11 11 11 11 11 11 11 10 10 10 10 10 10 10 10 10
14 14 15 15 15 14 14 14 14 14 13 13 13 13 13 12 12 11 11 11 11 10 10 10 10 10 11 11 11 11 11 11 11 10 10 10 10 10 10 10 10 10 10
13 13 13 13 13 13 14 14 14 14 14 13 13 13 13 12 12 12 11 11 11 10 10 10 10 10 11 11 11 11 11 11 11 11 10 10 10 10 10 10 10 10 10
11 11 12 12 12 12 13 13 13 13 13 13 13 13 13 13 12 12 12 12 11 11 11 10 10 11 11 11 11 11 11 11 11 11 10 10 10 10 10 10 10 10 10
10 10 10 10 10 11 11 12 12 12 13 13 13 13 13 12 12 12 12 11 11 11 11 11 11 11 11 11 11 11 11 11 11 11 11 10 10 10 10 10 10 10 10
8 8 8 9 9 9 9 10 11 11 12 12 12 13 13 13 12 12 12 12 12 12 11 11 11 11 11 11 11 11 11 11 11 11 11 11 10 10 10 10 10 10 10
7 7 7 7 8 8 8 9 9 10 10 11 11 12 12 12 12 12 12 12 12 12 12 12 11 11 11 11 11 10 10 11 11 11 11 11 10 10 10 10 10 10 10
6 6 6 6 6 7 7 8 8 8 9 9 10 11 11 11 11 12 12 12 12 12 12 12 12 12 12 11 11 11 11 10 10 10 10 10 10 10 10 10 10 10 9
5 5 5 5 5 5 6 6 6 7 7 8 8 9 9 10 10 11 11 11 11 12 12 12 12 12 12 12 12 11 11 11 11 10 10 10 10 10 10 10 9 9 9
5 5 5 5 5 5 5 5 5 5 5 6 6 7 8 8 9 9 10 10 11 11 11 12 12 12 12 12 12 12 12 11 11 10 10 10 10 10 9 9 9 9 9
Wind_Speed
5 5 5 5 6 6 6 7 8 8 8 8 9 9 9 9 9 7 7 7 7 7 6 6 7 7 6 7 8 9 9 10 11 8 6 7 9 9 9 12 13 14 15
4 5 5 5 6 6 6 7 8 8 8 8 8 9 9 9 9 9 8 8 7 8 7 7 7 6 7 7 7 9 9 10 10 10 7 7 9 10 9 10 9 12 12
4 5 5 5 6 7 7 7 7 7 8 8 8 9 9 9 9 8 8 8 8 7 7 7 7 6 7 6 7 8 8 9 9 8 7 6 6 7 9 9 9 7 10
5 5 5 5 6 6 7 7 7 7 8 8 9 9 9 9 9 10 9 8 8 7 7 7 6 6 7 6 6 7 7 8 8 8 7 6 6 6 8 9 8 8 8
5 6 5 5 5 6 6 6 7 7 8 8 9 9 9 8 9 12 12 10 8 7 7 6 5 5 7 6 6 6 7 7 7 8 8 7 7 6 8 8 9 8 7
5 6 5 5 5 6 6 7 7 7 8 8 9 9 9 7 10 12 13 11 8 7 7 6 5 5 4 6 7 8 8 8 8 8 8 9 9 8 8 9 9 8 6
5 5 4 5 5 6 6 6 7 8 8 8 9 9 9 8 9 12 13 11 9 7 7 6 5 4 6 6 5 6 7 7 9 9 9 10 10 10 10 11 10 9 5
5 4 4 4 5 5 6 6 7 7 8 8 8 9 9 7 8 12 14 11 7 7 6 6 6 6 5 7 6 5 5 5 6 8 9 8 8 8 9 8 7 7 6
5 5 5 4 5 5 6 7 7 7 8 8 8 8 9 8 7 11 13 9 7 7 6 5 6 6 5 7 7 6 5 4 4 6 5 5 5 7 7 7 8 9 6
6 5 5 5 6 6 7 7 6 6 7 8 7 7 8 8 7 9 12 7 7 6 5 5 3 5 8 8 7 5 5 4 3 4 5 6 7 9 11 9 9 9 6
6 6 7 7 7 7 7 7 7 7 7 8 8 7 7 6 6 6 9 7 7 7 5 5 4 5 7 8 7 5 5 5 4 3 3 4 4 5 7 7 8 8 8
7 8 9 9 8 7 8 8 7 7 8 8 7 7 5 4 4 5 7 8 9 7 6 5 4 6 7 7 5 4 5 5 3 2 2 2 3 3 4 5 5 4 4
9 10 10 10 10 9 9 9 8 7 7 7 6 6 6 5 3 5 7 7 8 6 5 5 6 7 7 3 2 4 4 2 1 1 1 1 1 3 4 5 7 8 9
11 11 10 11 11 10 9 9 8 8 7 7 7 6 6 5 5 4 4 4 5 5 5 3 5 4 4 3 2 2 2 2 1 0 1 2 2 4 5 6 7 8 8
11 12 12 11 11 10 10 9 10 10 9 8 7 7 7 7 3 3 6 6 6 6 7 5 4 3 2 1 0 1 1 1 1 1 2 3 3 4 5 6 6 6 6
11 11 10 10 9 10 10 10 13 14 10 13 13 11 8 8 6 6 8 9 9 9 8 6 4 3 2 1 0 1 1 1 2 2 2 3 4 5 5 5 6 7 8
11 11 10 10 10 10 10 10 10 11 15 16 16 16 16 12 10 10 10 9 10 8 7 7 5 4 4 3 2 2 2 2 2 3 3 4 5 5 6 6 6 7 7
11 10 10 10 10 10 10 10 10 10 9 9 13 18 18 17 15 13 11 8 8 8 8 7 6 5 5 4 4 3 3 3 4 4 4 4 4 5 6 6 6 7 8
11 9 10 10 10 10 10 10 10 11 11 11 9 10 15 15 14 13 11 9 9 9 8 8 7 7 6 6 5 5 5 5 5 5 5 5 5 5 6 6 6 8 7
11 12 12 11 11 10 10 10 10 11 11 11 11 11 9 9 9 10 11 11 11 10 9 9 8 8 8 7 7 7 7 7 7 6 6 6 6 5 6 7 7 8 7
12 13 14 11 10 10 10 10 11 11 11 11 11 11 11 11 11 12 11 12 12 11 11 10 9 9 9 8 8 9 10 9 8 8 8 8 7 7 7 7 8 7 7
12 12 13 12 11 11 11 11 11 11 12 13 12 11 11 12 13 12 12 12 12 12 11 11 10 10 10 10 10 10 11 11 10 10 10 9 9 8 8 8 8 8 8
13 14 13 13 13 13 12 11 11 11 12 12 12 12 10 11 13 13 14 13 13 12 12 12 12 11 11 11 11 12 12 12 11 11 11 11 10 10 10 10 10 10 9
13 13 14 13 13 13 13 13 13 13 13 13 13 12 12 12 13 14 14 14 13 13 13 13 14 16 18 14 12 12 13 12 12 12 14 12 12 11 11 11 11 12 11
12 13 13 13 13 13 14 14 14 14 14 14 14 13 13 13 14 14 14 14 15 15 16 16 14 16 20 21 18 15 14 13 12 11 12 13 13 13 13 13 11 11 11
12 12 12 12 12 13 13 14 14 15 14 14 14 15 15 14 14 14 14 14 14 14 15 15 18 20 20 20 21 19 17 17 17 14 13 13 14 13 14 12 14 13 12
Wind_Direction
307 320 322 334 335 333 336 339 335 336 340 344 345 344 346 345 342 338 333 326 313 302 287 277 269 262 252 241 234 231 228 227 234 234 211 194 196 211 200 210 210 202 200
292 302 311 325 324 328 336 336 334 338 338 339 342 341 346 345 343 340 333 328 322 315 300 285 276 267 260 251 241 235 230 225 228 229 215 202 204 206 203 202 203 203 201
275 289 304 318 324 330 331 334 330 334 333 334 337 340 342 341 339 336 332 326 320 315 309 299 290 279 269 259 251 244 235 228 224 227 218 205 206 202 199 201 199 198 198
269 280 299 313 319 324 330 327 327 329 329 332 333 334 337 336 337 337 331 323 318 315 308 300 294 290 287 278 264 253 243 233 223 224 220 204 200 201 198 198 195 192 189
269 279 293 304 308 315 321 321 320 320 322 327 326 327 333 333 344 339 330 323 319 315 308 303 304 311 310 298 285 272 256 241 228 220 219 210 200 192 203 199 196 184 180
272 280 289 296 305 309 318 321 321 320 321 323 322 326 325 331 347 333 327 320 319 314 310 306 304 290 293 282 276 274 270 256 241 226 222 216 209 201 201 200 191 180 179
278 282 286 294 302 308 316 315 315 315 318 318 319 322 321 335 346 330 327 317 312 315 312 307 308 314 310 303 277 254 250 248 252 247 232 224 214 204 198 199 196 183 171
278 282 283 285 292 298 304 310 313 316 317 315 316 317 315 325 342 329 323 306 308 311 308 305 301 307 328 327 307 288 279 260 249 242 240 234 219 203 198 195 184 159 136
278 275 273 273 280 291 301 308 315 315 315 316 318 311 311 318 345 333 324 314 315 318 315 313 317 313 346 323 297 288 283 275 243 236 244 226 196 184 172 168 168 165 154
269 263 262 263 270 279 290 299 306 305 308 309 311 311 310 312 343 333 328 317 320 322 319 317 334 336 337 323 300 294 289 290 276 224 201 189 192 184 179 184 179 170 153
259 254 252 252 258 267 277 282 287 294 300 306 311 308 304 308 314 322 329 321 322 318 320 323 335 354 335 325 308 301 309 305 283 249 214 192 183 182 184 185 185 175 163
252 248 249 250 252 255 257 267 276 282 287 294 303 311 307 300 300 319 318 315 315 308 313 317 339 350 330 321 315 341 325 299 272 230 206 188 178 172 161 158 157 147 138
254 250 251 252 249 249 254 259 265 268 277 290 298 304 309 310 287 234 267 284 295 297 309 329 320 315 305 300 3 330 308 296 278 211 180 171 148 132 125 122 114 108 101
262 263 259 256 254 247 245 252 257 263 269 277 286 293 301 299 299 307 302 287 264 271 286 272 247 268 282 308 308 323 353 1 346 78 121 111 115 127 131 132 128 124 113
272 269 267 261 259 260 253 245 250 252 254 261 275 279 286 289 325 341 306 309 317 322 314 287 275 271 269 290 12 48 43 42 63 87 118 122 124 124 128 130 133 130 127
282 278 274 269 262 259 259 253 231 237 234 226 239 256 262 254 266 263 272 283 290 295 288 269 267 265 266 262 220 119 91 89 89 104 118 123 126 127 127 127 134 135 136
292 286 281 275 270 263 260 260 264 240 228 234 233 233 240 250 243 247 258 273 276 273 263 259 255 252 247 236 221 191 162 143 132 126 121 121 124 127 131 133 135 134 136
310 299 290 282 274 269 265 260 260 265 258 246 230 226 228 233 237 239 243 259 256 239 249 254 251 245 238 230 219 199 180 168 157 149 140 135 137 137 138 141 143 142 142
328 319 312 299 287 277 271 264 260 258 259 259 254 224 216 223 226 230 223 237 250 251 245 244 244 240 235 227 220 209 199 188 177 165 159 155 155 152 148 147 142 140 149
337 329 320 309 298 290 280 271 265 261 258 258 255 251 223 206 224 222 217 227 238 244 243 242 239 237 233 228 219 212 208 198 188 184 175 173 171 168 162 160 159 162 168
342 340 334 323 317 307 299 289 280 273 267 262 260 254 234 230 237 239 232 228 231 235 236 235 234 231 229 226 222 216 215 208 198 193 185 183 180 178 177 175 174 172 168
347 347 345 341 334 327 318 307 298 289 282 276 272 260 216 232 245 245 240 236 233 232 232 229 229 227 224 222 221 219 217 214 206 199 194 189 187 186 185 183 180 177 175
351 350 349 348 345 338 331 325 317 308 300 291 284 277 258 244 245 246 245 242 237 232 227 224 225 224 223 222 222 223 221 217 211 204 200 195 194 193 192 191 188 187 187
352 352 350 350 350 349 345 340 335 328 320 311 302 292 282 270 261 256 252 247 240 233 227 222 223 223 220 219 220 221 225 223 215 210 207 204 200 199 198 197 197 197 197
350 350 349 350 349 348 346 344 341 339 333 327 320 312 303 293 281 271 263 255 247 239 231 225 224 224 224 220 218 219 213 210 218 216 206 208 207 204 203 201 200 199 200
342 344 344 344 345 344 344 342 340 339 335 333 330 325 319 311 302 291 279 268 258 249 241 233 227 223 222 220 220 216 200 194 201 216 216 210 209 208 205 206 204 203 203
Height
1532 1529 1527 1524 1521 1519 1516 1513 1510 1508 1506 1503 1500 1497 1495 1492 1489 1487 1485 1483 1481 1480 1479 1478 1477 1477 1478 1478 1480 1481 1483 1485 1487 1489 1490 1492 1495 1499 1501 1505 1508 1512 1515
1530 1528 1526 1523 1521 1519 1516 1513 1510 1507 1505 1502 1499 1497 1494 1491 1488 1486 1483 1481 1479 1478 1476 1475 1475 1474 1474 1474 1475 1476 1477 1479 1481 1483 1485 1487 1489 1493 1495 1498 1502 1505 1509
1528 1527 1525 1523 1520 1518 1515 1512 1509 1506 1504 1501 1499 1496 1493 1490 1487 1485 1482 1480 1478 1476 1474 1473 1472 1471 1470 1470 1470 1471 1472 1474 1475 1478 1479 1482 1484 1487 1489 1492 1496 1499 1503
1527 1525 1524 1521 1519 1516 1514 1510 1508 1505 1503 1500 1498 1495 1492 1489 1486 1483 1481 1478 1476 1474 1472 1471 1469 1468 1468 1467 1467 1467 1468 1469 1470 1472 1474 1476 1478 1481 1484 1486 1489 1493 1496
1525 1524 1522 1519 1517 1514 1512 1509 1506 1504 1502 1499 1496 1493 1490 1487 1484 1481 1479 1477 1475 1472 1471 1469 1468 1466 1465 1464 1464 1464 1464 1465 1466 1467 1469 1471 1473 1475 1477 1480 1483 1486 1490
1524 1522 1520 1518 1516 1513 1510 1508 1505 1503 1500 1497 1494 1492 1488 1486 1482 1479 1476 1474 1472 1470 1468 1467 1466 1464 1462 1461 1460 1460 1460 1461 1461 1462 1464 1465 1467 1469 1472 1474 1477 1480 1483
1522 1520 1518 1516 1514 1512 1509 1506 1504 1501 1498 1495 1492 1489 1486 1484 1480 1477 1474 1472 1470 1468 1466 1465 1463 1462 1460 1459 1458 1457 1456 1456 1457 1458 1459 1460 1462 1464 1467 1469 1472 1474 1477
1521 1519 1517 1514 1512 1510 1508 1505 1503 1500 1497 1493 1490 1487 1484 1481 1477 1475 1472 1470 1469 1466 1464 1463 1461 1460 1459 1457 1456 1455 1454 1453 1453 1454 1455 1456 1459 1460 1462 1464 1466 1469 1474
1519 1517 1515 1513 1511 1509 1506 1504 1501 1498 1495 1492 1489 1485 1482 1479 1476 1473 1470 1469 1467 1465 1463 1461 1460 1458 1457 1455 1454 1453 1452 1451 1450 1450 1450 1452 1454 1456 1458 1461 1463 1466 1468
1517 1515 1513 1511 1509 1507 1505 1502 1500 1496 1493 1490 1487 1483 1480 1477 1474 1471 1469 1468 1466 1464 1462 1460 1458 1457 1456 1454 1453 1452 1450 1449 1448 1448 1448 1449 1450 1452 1454 1457 1459 1462 1465
1514 1512 1510 1509 1507 1505 1502 1500 1497 1494 1491 1489 1486 1482 1479 1476 1473 1470 1468 1466 1465 1463 1461 1459 1458 1456 1455 1453 1452 1450 1449 1447 1446 1446 1446 1446 1448 1449 1451 1454 1457 1460 1463
1511 1509 1507 1506 1504 1502 1499 1497 1495 1492 1489 1487 1484 1481 1478 1475 1472 1469 1467 1465 1463 1462 1460 1458 1457 1455 1454 1452 1451 1449 1447 1446 1445 1445 1444 1445 1446 1448 1449 1451 1455 1458 1462
1507 1505 1504 1502 1500 1498 1496 1494 1492 1490 1488 1485 1483 1480 1477 1474 1471 1468 1466 1464 1462 1461 1459 1457 1456 1455 1453 1452 1450 1448 1447 1446 1445 1444 1444 1444 1445 1447 1448 1450 1453 1456 1460
1503 1501 1500 1498 1496 1494 1492 1490 1489 1487 1485 1483 1480 1478 1475 1473 1470 1467 1465 1463 1461 1460 1459 1457 1455 1454 1453 1451 1450 1448 1447 1445 1444 1444 1444 1444 1445 1446 1448 1450 1452 1455 1459
1498 1497 1495 1494 1492 1490 1488 1486 1484 1482 1481 1479 1477 1475 1473 1471 1469 1466 1463 1462 1460 1459 1457 1456 1455 1454 1452 1451 1450 1448 1447 1446 1445 1444 1444 1444 1445 1446 1448 1450 1452 1455 1459
1492 1491 1490 1488 1486 1484 1483 1481 1478 1477 1475 1474 1472 1471 1469 1467 1465 1463 1461 1459 1458 1457 1456 1455 1454 1453 1452 1451 1450 1449 1448 1447 1446 1445 1445 1445 1446 1447 1449 1451 1453 1456 1459
1487 1485 1484 1482 1480 1478 1477 1475 1473 1472 1470 1468 1467 1466 1464 1463 1462 1460 1458 1457 1456 1455 1454 1454 1453 1452 1451 1450 1449 1449 1448 1448 1447 1447 1447 1447 1447 1449 1450 1452 1454 1457 1459
1481 1479 1477 1475 1473 1472 1470 1469 1467 1466 1465 1462 1461 1460 1459 1458 1457 1456 1455 1454 1453 1452 1451 1451 1450 1450 1449 1449 1449 1448 1448 1448 1448 1448 1448 1448 1449 1450 1451 1453 1455 1457 1460
1477 1474 1471 1469 1467 1465 1463 1462 1461 1459 1458 1457 1456 1454 1453 1453 1452 1451 1450 1449 1449 1449 1448 1447 1447 1447 1447 1447 1447 1447 1447 1447 1448 1448 1449 1449 1450 1451 1453 1454 1456 1458 1460
1473 1470 1466 1463 1461 1459 1457 1456 1454 1453 1452 1451 1450 1449 1448 1447 1446 1445 1444 1444 1444 1443 1443 1443 1443 1443 1443 1443 1444 1444 1445 1446 1446 1447 1448 1449 1450 1452 1453 1455 1456 1458 1460
1471 1467 1463 1460 1457 1455 1453 1451 1449 1447 1446 1444 1443 1443 1442 1441 1440 1440 1439 1438 1437 1437 1437 1437 1437 1438 1438 1439 1440 1441 1442 1443 1444 1445 1447 1448 1449 1451 1452 1454 1456 1458 1460
1469 1466 1462 1458 1455 1451 1448 1446 1444 1442 1440 1438 1437 1436 1434 1434 1433 1433 1432 1432 1431 1431 1431 1431 1431 1431 1432 1433 1435 1436 1438 1439 1440 1442 1443 1445 1447 1449 1450 1452 1454 1456 1458
1468 1464 1460 1456 1453 1449 1445 1442 1440 1437 1435 1433 1431 1430 1429 1426 1426 1425 1425 1425 1424 1424 1424 1424 1424 1424 1425 1427 1428 1430 1432 1434 1436 1437 1439 1441 1443 1445 1447 1449 1451 1453 1455
1468 1464 1460 1455 1451 1447 1444 1440 1437 1434 1431 1428 1426 1424 1423 1421 1419 1418 1417 1417 1417 1416 1416 1416 1416 1417 1418 1419 1421 1422 1425 1428 1430 1432 1434 1436 1438 1440 1443 1445 1447 1449 1451
1467 1463 1459 1455 1451 1446 1442 1438 1434 1431 1427 1424 1422 1419 1417 1415 1413 1411 1410 1409 1408 1408 1408 1408 1408 1408 1410 1411 1412 1414 1417 1420 1423 1425 1428 1430 1433 1435 1437 1439 1442 1444 1446
1466 1462 1458 1454 1450 1445 1441 1436 1432 1428 1424 1420 1417 1414 1411 1408 1406 1404 1403 1401 1400 1399 1399 1399 1399 1399 1400 1402 1404 1406 1408 1411 1415 1418 1421 1424 1426 1429 1431 1434 1436 1438 1440